ワイスマン-スキッフ彗星

114P/Wiseman-Skiff (2020)

English version
Home page
Updated on December 28, 2022

---------------------------------------------------------------------

・ プロフィール

・ 写真集

・ 軌道要素

Epoch 2020 Feb. 1.0 TT = JDT 2458880.5                                          
T 2020 Jan. 14.08781 TT                                 Rudenko                 
q   1.5793959            (2000.0)            P               Q                  
n   0.14750869     Peri.  172.81548     +0.10038981     -0.94427344             
a   3.5475156      Node   271.05969     +0.89654023     +0.22247669             
e   0.5547882      Incl.   18.27230     +0.43143656     -0.24259388             
P   6.68                                                                        
From 2049 observations 1993 Feb. 2-2020 May 14, mean residual 0".8.             
     Nongravitational parameters A1 = +0.37, A2 = +0.0011.                      

・ 星図

・ 光度変化

        m1 = 11.0 + 5 logΔ + 20.0 log r

---------------------------------------------------------------------

軌道要素はM.P.E.C. 2021-B143に掲載されたものです。
星図はステラナビゲータ Ver.10 (アストロアーツ) で作成したものです。
光度グラフはComet for Windowsで作成したものです。

---------------------------------------------------------------------

Copyright(C) Seiichi Yoshida (comet@aerith.net). All rights reserved.